Home > Weather > Leeds > Past weeks

Flag for United Kingdom Past Weather in Leeds, England, United Kingdom — Yesterday and Last 2 Weeks

Now
57 °F

Scattered clouds.


Feels Like: 53 °F
Forecast: 49 / 62 °F
Wind: 20 mph from West

Location: Leeds And Bradford

Current Time: Jun 29, 2016 at 7:25:42 PM

Latest Report: Jun 29, 2016 at 6:20 PM


Visibility: N/A

Pressure: 29.50 "Hg

Humidity: 77%

Dew Point: 50 °F

Location of LeedsLocation

Past Weather in Leeds — Graph

°F

Leeds Temperature Yesterday

Maximum temperature yesterday: 59 °F (at 9:20 AM)
Minimum temperature yesterday: 48 °F (at 3:50 AM)
Average temperature yesterday: 53 °F

High & Low Weather Summary for the Past Weeks

 TemperatureHumidityPressure
High72 °F (Jun 23, 4:20 PM)100% (Jun 14, 9:20 PM)30.18 "Hg (Jun 14, 9:20 PM)
Low46 °F (Jun 19, 2:50 AM)49% (Jun 21, 12:20 PM)29.36 "Hg (Jun 14, 6:20 PM)
Average56 °F84%29.88 "Hg
* Reported Jun 14 6:20 PM — Jun 29 6:20 PM, Leeds, Weather by CustomWeather, © 2016

Note: Actual official high and low records may vary slightly from our data, if they occured in-between our weather recording intervals... More about our weather records

Advertising

Leeds Weather History for the Previous 24 Hours

Scroll right to see more
 ConditionsComfort  
Time TempWeatherWind HumidityBarometerVisibility
6:20 PM
Wed, Jun 29
57 °FScattered clouds.20 mph77%29.50 "HgN/A
5:50 PM59 °FScattered clouds.23 mph72%29.50 "HgN/A
5:20 PM59 °FScattered clouds.22 mph72%29.47 "HgN/A
4:50 PM59 °FScattered showers. Scattered clouds.21 mph82%29.47 "HgN/A
4:20 PM59 °FLight rain. Scattered clouds.17 mph94%29.47 "HgN/A
3:50 PM57 °FLight rain. Broken clouds.15 mph94%29.47 "Hg6 mi
3:20 PM59 °FLight rain. Broken clouds.15 mph82%29.47 "HgN/A
2:50 PM57 °FLight rain. Broken clouds.13 mph94%29.47 "HgN/A
2:20 PM59 °FBroken clouds.16 mph88%29.47 "HgN/A
1:50 PM55 °FBroken clouds.13 mph100%29.50 "HgN/A
1:20 PM52 °FLight rain. Fog.12 mph100%29.50 "Hg2 mi
12:50 PM52 °FLight rain. Broken clouds.14 mph100%29.53 "Hg2 mi
12:20 PM52 °FLight rain. Broken clouds.18 mph100%29.53 "Hg3 mi
11:50 AM52 °FRain. Broken clouds.15 mph100%29.56 "Hg3 mi
11:20 AM52 °FLight rain. Scattered clouds.12 mph100%29.59 "Hg4 mi
10:50 AM52 °FLight rain. Scattered clouds.8 mph94%29.62 "HgN/A
10:20 AM54 °FLight rain. Scattered clouds.9 mph82%29.65 "HgN/A
9:20 AM52 °FScattered clouds.8 mph94%29.68 "HgN/A
8:50 AM52 °FScattered clouds.9 mph88%29.68 "HgN/A
8:20 AM52 °FScattered clouds.8 mph94%29.68 "HgN/A
7:50 AM52 °FScattered clouds.7 mph94%29.68 "HgN/A
7:20 AM52 °FScattered clouds.7 mph94%29.68 "HgN/A
6:50 AM52 °FScattered clouds.7 mph94%29.68 "HgN/A
6:20 AM52 °FScattered clouds.7 mph94%29.68 "HgN/A
5:50 AM50 °FScattered clouds.6 mph100%29.71 "HgN/A
5:20 AM50 °FPassing clouds.6 mph100%29.71 "HgN/A
4:20 AM48 °FPassing clouds.7 mph100%29.71 "HgN/A
3:50 AM48 °FPassing clouds.5 mph100%29.71 "HgN/A
3:20 AM48 °FPassing clouds.2 mph100%29.71 "HgN/A
2:50 AM48 °FPassing clouds.3 mph100%29.71 "HgN/A
2:20 AM48 °FPassing clouds.3 mph100%29.71 "HgN/A
1:50 AM48 °FPassing clouds.6 mph100%29.71 "HgN/A
1:20 AM50 °FPassing clouds.8 mph94%29.74 "HgN/A
12:50 AM50 °FPassing clouds.5 mph94%29.74 "HgN/A
12:20 AM50 °FPassing clouds.7 mph100%29.74 "HgN/A
11:50 PM
Tue, Jun 28
50 °FPassing clouds.3 mph100%29.74 "HgN/A
11:20 PM50 °FPassing clouds.3 mph100%29.74 "HgN/A
10:50 PM50 °FPassing clouds.3 mph100%29.74 "HgN/A
10:20 PM50 °FLight rain. Partly sunny.1 mph100%29.74 "Hg6 mi
9:50 PM50 °FLight rain. Partly sunny.No wind100%29.74 "Hg6 mi
9:20 PM50 °FScattered showers. Partly sunny.2 mph100%29.74 "HgN/A
8:50 PM52 °FLight rain. Partly sunny.1 mph94%29.74 "HgN/A
8:20 PM52 °FBroken clouds.2 mph94%29.74 "HgN/A
7:50 PM52 °FBroken clouds.2 mph94%29.74 "HgN/A
7:20 PM52 °FLight rain. Scattered clouds.3 mph94%29.77 "HgN/A
Weather by CustomWeather, © 2016

See weather overviewHow to use our weather pages